UAL845 KORD-SBGR

Flight info

Callsign UAL845
Flight time N/A
Altitude 35000
Route DENNT DCT DARCY DCT DREGS DCT DUMGE DCT SCOTO DCT LORNN Q65 KERLY DCT SHRKS Q89 MANLE/N0476F370 Y185 VENDS DCT OREDE DCT PVN L463 JUELE UL463 PTA UM348 KATOK M348 MEEGL DCT ANADA DCT VOKAV/N0476F390 DCT ASASO UL452 TONOM DCT ANRUS DCT VUMON DCT OPNAX/N0475F410 UZ24 MULUV/N0473F400 UZ38 VUNOX
Aircraft B772/H-SDE2E3FGHIJ5LORVWXY/LB1D1

Departure

Time N/A
Airport Chicago O'Hare International Airport (KORD)

Arrival

Time 2026-05-05 16:25
Airport São Paulo/Guarulhos–Governor André Franco Montoro International Airport (SBGR)
Time Latitude Longitude Altitude Speed Heading
2026-05-05 14:26 -10.70131 -50.54956 37044 ft 468 kts 159°
2026-05-05 14:26 -10.76110 -50.52305 37044 ft 469 kts 159°
2026-05-05 14:27 -10.82171 -50.49617 37044 ft 481 kts 159°
2026-05-05 14:27 -10.88411 -50.46847 37046 ft 494 kts 158°
2026-05-05 14:28 -10.94808 -50.44006 37047 ft 503 kts 158°
2026-05-05 14:28 -11.01257 -50.41140 37045 ft 508 kts 158°
2026-05-05 14:29 -11.07738 -50.38257 37048 ft 507 kts 159°
2026-05-05 14:29 -11.14218 -50.35374 37052 ft 507 kts 159°
2026-05-05 14:30 -11.20699 -50.32489 37049 ft 507 kts 159°
2026-05-05 14:30 -11.27199 -50.29594 37049 ft 507 kts 158°
2026-05-05 14:31 -11.33674 -50.26710 37050 ft 506 kts 159°
2026-05-05 14:31 -11.40120 -50.23837 37050 ft 506 kts 158°
2026-05-05 14:32 -11.46621 -50.20938 37048 ft 507 kts 158°
2026-05-05 14:32 -11.53049 -50.18069 37048 ft 505 kts 159°
2026-05-05 14:33 -11.59499 -50.15189 37048 ft 504 kts 159°
2026-05-05 14:33 -11.65948 -50.12309 37050 ft 505 kts 159°
2026-05-05 14:34 -11.72408 -50.09423 37049 ft 504 kts 159°
2026-05-05 14:34 -11.78833 -50.06550 37050 ft 504 kts 159°
2026-05-05 14:35 -11.85249 -50.03680 37046 ft 504 kts 159°
2026-05-05 14:35 -11.91682 -50.00802 37049 ft 505 kts 159°
2026-05-05 14:36 -11.94937 -49.99344 37185 ft 506 kts 159°
2026-05-05 14:36 -11.98151 -49.97905 37422 ft 505 kts 159°
2026-05-05 14:36 -12.01359 -49.96467 37651 ft 505 kts 159°
2026-05-05 14:36 -12.04594 -49.95018 37870 ft 504 kts 159°
2026-05-05 14:37 -12.07806 -49.93578 38064 ft 504 kts 159°
2026-05-05 14:37 -12.11057 -49.92121 38243 ft 504 kts 159°
2026-05-05 14:37 -12.14260 -49.90684 38409 ft 504 kts 159°
2026-05-05 14:37 -12.17493 -49.89234 38589 ft 504 kts 159°
2026-05-05 14:38 -12.20676 -49.87806 38738 ft 504 kts 159°
2026-05-05 14:38 -12.23895 -49.86362 38904 ft 504 kts 159°
2026-05-05 14:38 -12.27123 -49.84913 39052 ft 503 kts 159°
2026-05-05 14:38 -12.30309 -49.83482 39060 ft 503 kts 159°
2026-05-05 14:39 -12.36732 -49.80597 39063 ft 503 kts 159°
2026-05-05 14:39 -12.43173 -49.77702 39067 ft 504 kts 159°
2026-05-05 14:40 -12.49609 -49.74808 39067 ft 503 kts 159°
2026-05-05 14:40 -12.56003 -49.71931 39068 ft 502 kts 159°
2026-05-05 14:41 -12.62394 -49.69053 39072 ft 501 kts 160°
2026-05-05 14:41 -12.68833 -49.66153 39074 ft 502 kts 160°
2026-05-05 14:42 -12.75216 -49.63276 39075 ft 501 kts 160°
2026-05-05 14:42 -12.81623 -49.60387 39077 ft 501 kts 160°
2026-05-05 14:43 -12.87976 -49.57521 39076 ft 501 kts 160°
2026-05-05 14:43 -12.94382 -49.54629 39077 ft 501 kts 160°
2026-05-05 14:44 -13.00792 -49.51734 39076 ft 501 kts 160°
2026-05-05 14:44 -13.07173 -49.48850 39076 ft 500 kts 160°
2026-05-05 14:45 -13.13561 -49.45961 39085 ft 500 kts 160°
2026-05-05 14:45 -13.19917 -49.43085 39089 ft 498 kts 160°
2026-05-05 14:46 -13.26262 -49.40213 39091 ft 498 kts 160°
2026-05-05 14:46 -13.32599 -49.37342 39099 ft 498 kts 160°
2026-05-05 14:47 -13.38964 -49.34457 39102 ft 498 kts 160°
2026-05-05 14:47 -13.45276 -49.31594 39108 ft 496 kts 160°
2026-05-05 14:48 -13.51634 -49.28709 39116 ft 496 kts 160°
2026-05-05 14:48 -13.57972 -49.25832 39111 ft 496 kts 160°
2026-05-05 14:49 -13.64257 -49.22977 39118 ft 495 kts 160°
2026-05-05 14:49 -13.70572 -49.20106 39124 ft 495 kts 160°
2026-05-05 14:50 -13.76884 -49.17236 39132 ft 495 kts 160°
2026-05-05 14:50 -13.83087 -49.14111 39144 ft 498 kts 154°
2026-05-05 14:51 -13.89116 -49.10496 39153 ft 498 kts 154°
2026-05-05 14:51 -13.95110 -49.06891 39165 ft 498 kts 154°
2026-05-05 14:52 -14.01084 -49.03298 39181 ft 497 kts 154°
2026-05-05 14:52 -14.07080 -48.99691 39184 ft 498 kts 154°
2026-05-05 14:53 -14.13063 -48.96090 39182 ft 497 kts 154°
2026-05-05 14:53 -14.19033 -48.92495 39174 ft 497 kts 154°
2026-05-05 14:54 -14.24969 -48.88919 39171 ft 496 kts 154°
2026-05-05 14:54 -14.30964 -48.85305 39170 ft 496 kts 155°
2026-05-05 14:55 -14.36906 -48.81721 39177 ft 496 kts 154°
2026-05-05 14:55 -14.42878 -48.78116 39183 ft 496 kts 155°
2026-05-05 14:56 -14.48822 -48.74526 39193 ft 496 kts 154°
2026-05-05 14:56 -14.54782 -48.70924 39199 ft 496 kts 155°
2026-05-05 14:57 -14.60726 -48.67330 39207 ft 496 kts 155°
2026-05-05 14:57 -14.66702 -48.63715 39214 ft 495 kts 155°
2026-05-05 14:58 -14.72640 -48.60119 39217 ft 493 kts 155°
2026-05-05 14:58 -14.78554 -48.56536 39218 ft 493 kts 155°
2026-05-05 14:59 -14.84476 -48.52946 39225 ft 493 kts 155°
2026-05-05 14:59 -14.90422 -48.49339 39232 ft 493 kts 155°
2026-05-05 15:00 -14.95324 -48.46363 39233 ft 493 kts 155°
2026-05-05 15:00 -15.02248 -48.42159 39241 ft 493 kts 155°
2026-05-05 15:01 -15.08190 -48.38546 39239 ft 492 kts 155°
2026-05-05 15:01 -15.14061 -48.34975 39248 ft 492 kts 155°
2026-05-05 15:02 -15.19964 -48.31383 39239 ft 491 kts 155°
2026-05-05 15:02 -15.25844 -48.27802 39242 ft 490 kts 155°
2026-05-05 15:03 -15.31741 -48.24209 39252 ft 490 kts 155°
2026-05-05 15:03 -15.37622 -48.20623 39259 ft 490 kts 155°
2026-05-05 15:04 -15.43524 -48.17021 39271 ft 489 kts 155°
2026-05-05 15:04 -15.49392 -48.13438 39275 ft 489 kts 155°
2026-05-05 15:05 -15.58213 -48.08047 39282 ft 490 kts 155°
2026-05-05 15:06 -15.64040 -48.04483 39292 ft 488 kts 155°
2026-05-05 15:06 -15.69898 -48.00898 39308 ft 488 kts 155°
2026-05-05 15:07 -15.75758 -47.97310 39313 ft 488 kts 155°
2026-05-05 15:07 -15.81620 -47.93717 39308 ft 488 kts 155°
2026-05-05 15:08 -15.87451 -47.90141 39307 ft 488 kts 155°
2026-05-05 15:08 -15.93321 -47.86539 39304 ft 488 kts 155°
2026-05-05 15:09 -15.99159 -47.82953 39299 ft 487 kts 155°
2026-05-05 15:09 -16.04997 -47.79366 39289 ft 487 kts 156°
2026-05-05 15:10 -16.10826 -47.75781 39284 ft 486 kts 155°
2026-05-05 15:10 -16.16657 -47.72193 39286 ft 487 kts 155°
2026-05-05 15:11 -16.22499 -47.68595 39280 ft 486 kts 156°
2026-05-05 15:11 -16.28317 -47.65009 39276 ft 486 kts 156°
2026-05-05 15:12 -16.34155 -47.61410 39279 ft 487 kts 156°
2026-05-05 15:12 -16.39997 -47.57804 39270 ft 487 kts 156°
2026-05-05 15:13 -16.45972 -47.54705 39269 ft 476 kts 166°
2026-05-05 15:13 -16.52251 -47.52430 39265 ft 475 kts 167°
2026-05-05 15:14 -16.58491 -47.50184 39266 ft 475 kts 167°
2026-05-05 15:14 -16.64745 -47.47928 39266 ft 475 kts 167°
2026-05-05 15:15 -16.70995 -47.45670 39265 ft 475 kts 167°
2026-05-05 15:15 -16.77227 -47.43415 39265 ft 474 kts 167°
2026-05-05 15:16 -16.83512 -47.41139 39260 ft 474 kts 167°
2026-05-05 15:16 -16.89724 -47.38887 39259 ft 474 kts 167°
2026-05-05 15:17 -16.95974 -47.36621 39260 ft 475 kts 167°
2026-05-05 15:17 -17.02220 -47.34354 39248 ft 475 kts 167°
2026-05-05 15:18 -17.08470 -47.32083 39246 ft 474 kts 167°
2026-05-05 15:18 -17.14736 -47.29805 39258 ft 473 kts 167°
2026-05-05 15:19 -17.20936 -47.27551 39259 ft 474 kts 167°
2026-05-05 15:19 -17.27180 -47.25278 39259 ft 474 kts 167°
2026-05-05 15:20 -17.33407 -47.23009 39256 ft 475 kts 167°
2026-05-05 15:20 -17.39666 -47.20728 39254 ft 474 kts 167°
2026-05-05 15:21 -17.45916 -47.18447 39250 ft 474 kts 167°
2026-05-05 15:21 -17.52143 -47.16174 39247 ft 473 kts 167°
2026-05-05 15:22 -17.58370 -47.13899 39244 ft 473 kts 167°
2026-05-05 15:22 -17.64592 -47.11623 39241 ft 472 kts 167°
2026-05-05 15:23 -17.70819 -47.09345 39237 ft 472 kts 167°
2026-05-05 15:23 -17.77041 -47.07066 39235 ft 472 kts 167°
2026-05-05 15:24 -17.83264 -47.04786 39233 ft 472 kts 167°
2026-05-05 15:24 -17.89498 -47.02500 39233 ft 474 kts 167°
2026-05-05 15:25 -17.95717 -47.00217 39234 ft 474 kts 167°
2026-05-05 15:25 -18.01932 -46.97935 39235 ft 474 kts 167°
2026-05-05 15:26 -18.08193 -46.95633 39234 ft 475 kts 167°
2026-05-05 15:26 -18.14431 -46.93339 39250 ft 475 kts 167°
2026-05-05 15:27 -18.20644 -46.91051 39253 ft 474 kts 167°
2026-05-05 15:27 -18.26863 -46.88759 39258 ft 472 kts 167°
2026-05-05 15:28 -18.33087 -46.86465 39263 ft 472 kts 167°
2026-05-05 15:28 -18.39285 -46.84179 39269 ft 473 kts 167°
2026-05-05 15:29 -18.45483 -46.81890 39275 ft 472 kts 167°
2026-05-05 15:29 -18.51686 -46.79598 39279 ft 472 kts 167°
2026-05-05 15:30 -18.57894 -46.77302 39280 ft 472 kts 167°
2026-05-05 15:30 -18.64038 -46.75024 39277 ft 455 kts 167°
2026-05-05 15:30 -18.66969 -46.73934 39277 ft 439 kts 167°
2026-05-05 15:31 -18.69828 -46.72873 39281 ft 432 kts 167°
2026-05-05 15:31 -18.75561 -46.70756 39284 ft 440 kts 167°
2026-05-05 15:32 -18.81342 -46.68613 39286 ft 441 kts 167°
2026-05-05 15:32 -18.87130 -46.66465 39282 ft 441 kts 167°
2026-05-05 15:33 -18.92930 -46.64310 39285 ft 438 kts 167°
2026-05-05 15:33 -18.98652 -46.62064 39285 ft 439 kts 166°
2026-05-05 15:34 -19.04371 -46.59750 39288 ft 441 kts 166°
2026-05-05 15:34 -19.10099 -46.57436 39288 ft 442 kts 166°
2026-05-05 15:35 -19.15861 -46.55111 39302 ft 440 kts 166°
2026-05-05 15:35 -19.21626 -46.52786 39297 ft 442 kts 166°
2026-05-05 15:36 -19.27386 -46.50460 39300 ft 443 kts 166°
2026-05-05 15:36 -19.33118 -46.48145 39299 ft 442 kts 166°
2026-05-05 15:37 -19.38838 -46.45832 39299 ft 441 kts 166°
2026-05-05 15:37 -19.44578 -46.43511 39297 ft 440 kts 166°
2026-05-05 15:38 -19.50356 -46.41174 39300 ft 443 kts 166°
2026-05-05 15:38 -19.56113 -46.38842 39296 ft 440 kts 166°
2026-05-05 15:39 -19.61810 -46.36533 39296 ft 441 kts 166°
2026-05-05 15:39 -19.67591 -46.34188 39290 ft 441 kts 165°
2026-05-05 15:40 -19.73334 -46.31857 39288 ft 444 kts 165°
2026-05-05 15:40 -19.79097 -46.29516 39283 ft 442 kts 165°
2026-05-05 15:41 -19.84810 -46.27193 39282 ft 442 kts 165°
2026-05-05 15:41 -19.90618 -46.24831 39280 ft 443 kts 165°
2026-05-05 15:42 -19.96384 -46.22483 39275 ft 442 kts 165°
2026-05-05 15:42 -20.02116 -46.20147 39275 ft 440 kts 165°
2026-05-05 15:43 -20.07822 -46.17821 39272 ft 441 kts 165°
2026-05-05 15:43 -20.13596 -46.15466 39283 ft 443 kts 165°
2026-05-05 15:44 -20.19364 -46.13110 39277 ft 445 kts 165°
2026-05-05 15:44 -20.25122 -46.10756 39278 ft 444 kts 165°
2026-05-05 15:45 -20.30923 -46.08384 39275 ft 445 kts 165°
2026-05-05 15:45 -20.36691 -46.06021 39274 ft 442 kts 165°
2026-05-05 15:46 -20.42461 -46.03658 39275 ft 444 kts 165°
2026-05-05 15:46 -20.48251 -46.01284 39274 ft 443 kts 165°
2026-05-05 15:47 -20.54005 -45.98923 39276 ft 443 kts 165°
2026-05-05 15:47 -20.59801 -45.96543 39267 ft 445 kts 165°
2026-05-05 15:48 -20.65562 -45.94175 39270 ft 444 kts 165°
2026-05-05 15:48 -20.71356 -45.91791 39267 ft 444 kts 165°
2026-05-05 15:49 -20.77119 -45.89416 39265 ft 446 kts 165°
2026-05-05 15:49 -20.82918 -45.87098 39264 ft 441 kts 170°
2026-05-05 15:50 -20.88916 -45.86151 39271 ft 429 kts 185°
2026-05-05 15:50 -20.94783 -45.86971 39274 ft 422 kts 196°
2026-05-05 15:51 -21.00485 -45.88378 39279 ft 420 kts 197°
2026-05-05 15:51 -21.06201 -45.89797 39272 ft 420 kts 197°
2026-05-05 15:52 -21.11928 -45.91222 39287 ft 422 kts 197°
2026-05-05 15:52 -21.17643 -45.92645 39285 ft 421 kts 197°
2026-05-05 15:53 -21.23373 -45.94074 39291 ft 421 kts 197°
2026-05-05 15:53 -21.29075 -45.95497 39290 ft 421 kts 197°
2026-05-05 15:54 -21.34770 -45.96920 39299 ft 421 kts 197°
2026-05-05 15:54 -21.40502 -45.98352 39302 ft 421 kts 197°
2026-05-05 15:55 -21.46216 -45.99782 39290 ft 421 kts 197°
2026-05-05 15:55 -21.51944 -46.01216 39296 ft 421 kts 197°
2026-05-05 15:55 -21.54751 -46.01918 38992 ft 413 kts 197°
2026-05-05 15:56 -21.57528 -46.02612 38496 ft 403 kts 197°
2026-05-05 15:56 -21.60279 -46.03302 37637 ft 404 kts 196°
2026-05-05 15:56 -21.63024 -46.03991 36848 ft 405 kts 196°
2026-05-05 15:56 -21.65728 -46.04670 36121 ft 404 kts 196°
2026-05-05 15:57 -21.68475 -46.05360 35390 ft 408 kts 196°
2026-05-05 15:57 -21.71352 -46.06086 34605 ft 432 kts 195°
2026-05-05 15:57 -21.74277 -46.06821 33791 ft 438 kts 195°
2026-05-05 15:57 -21.77289 -46.07577 32989 ft 439 kts 195°
2026-05-05 15:58 -21.80238 -46.08318 32199 ft 440 kts 195°
2026-05-05 15:58 -21.83223 -46.09068 31375 ft 443 kts 195°
2026-05-05 15:58 -21.86245 -46.09827 30781 ft 439 kts 195°
2026-05-05 15:58 -21.89194 -46.10569 30329 ft 436 kts 195°
2026-05-05 15:59 -21.92163 -46.11316 29828 ft 437 kts 195°
2026-05-05 15:59 -21.95143 -46.12067 29292 ft 435 kts 194°
2026-05-05 15:59 -21.98075 -46.12806 28755 ft 432 kts 194°
2026-05-05 15:59 -22.01002 -46.13543 28221 ft 429 kts 194°
2026-05-05 16:00 -22.03877 -46.14268 27685 ft 427 kts 194°
2026-05-05 16:00 -22.06778 -46.15000 27144 ft 425 kts 194°
2026-05-05 16:00 -22.09642 -46.15723 26609 ft 423 kts 194°
2026-05-05 16:00 -22.12526 -46.16451 26058 ft 420 kts 194°
2026-05-05 16:01 -22.15367 -46.17169 25514 ft 417 kts 194°
2026-05-05 16:01 -22.18190 -46.17883 24966 ft 414 kts 194°
2026-05-05 16:01 -22.20974 -46.18586 24418 ft 412 kts 194°
2026-05-05 16:01 -22.23766 -46.19292 23864 ft 410 kts 193°
2026-05-05 16:02 -22.26522 -46.19990 23311 ft 408 kts 193°
2026-05-05 16:02 -22.29287 -46.20690 22767 ft 406 kts 193°
2026-05-05 16:02 -22.32024 -46.21383 22238 ft 404 kts 193°
2026-05-05 16:02 -22.34785 -46.21914 21748 ft 401 kts 188°
2026-05-05 16:03 -22.37563 -46.22312 21284 ft 398 kts 187°
2026-05-05 16:03 -22.40305 -46.22708 20817 ft 396 kts 187°
2026-05-05 16:03 -22.43026 -46.23109 20343 ft 394 kts 188°
2026-05-05 16:03 -22.45741 -46.23517 19870 ft 392 kts 188°
2026-05-05 16:04 -22.48440 -46.23925 19403 ft 389 kts 188°
2026-05-05 16:04 -22.51111 -46.24333 18937 ft 386 kts 187°
2026-05-05 16:04 -22.53740 -46.24736 18469 ft 384 kts 187°
2026-05-05 16:04 -22.56403 -46.25146 18078 ft 381 kts 187°
2026-05-05 16:05 -22.59045 -46.25554 17886 ft 382 kts 187°
2026-05-05 16:05 -22.61662 -46.25959 17672 ft 382 kts 187°
2026-05-05 16:05 -22.64322 -46.26371 17449 ft 380 kts 187°
2026-05-05 16:05 -22.66930 -46.26776 17225 ft 379 kts 187°
2026-05-05 16:06 -22.69548 -46.27183 16989 ft 378 kts 187°
2026-05-05 16:06 -22.72166 -46.27590 16737 ft 377 kts 187°
2026-05-05 16:06 -22.74757 -46.27993 16502 ft 376 kts 187°
2026-05-05 16:06 -22.77306 -46.28529 16279 ft 376 kts 195°
2026-05-05 16:07 -22.79721 -46.29580 16031 ft 371 kts 207°
2026-05-05 16:07 -22.81844 -46.31133 15740 ft 362 kts 220°
2026-05-05 16:07 -22.83497 -46.33122 15471 ft 353 kts 235°
2026-05-05 16:07 -22.84562 -46.35509 15304 ft 342 kts 253°
2026-05-05 16:08 -22.84868 -46.37992 15266 ft 328 kts 270°
2026-05-05 16:08 -22.84579 -46.40387 15276 ft 317 kts 281°
2026-05-05 16:08 -22.84107 -46.42732 15286 ft 321 kts 277°
2026-05-05 16:08 -22.83836 -46.45126 15288 ft 326 kts 275°
2026-05-05 16:09 -22.83531 -46.47661 15293 ft 354 kts 277°
2026-05-05 16:09 -22.83143 -46.50436 15287 ft 382 kts 277°
2026-05-05 16:09 -22.82787 -46.53347 15234 ft 394 kts 272°
2026-05-05 16:09 -22.82839 -46.56280 15058 ft 390 kts 264°
2026-05-05 16:10 -22.83052 -46.59227 15038 ft 390 kts 264°
2026-05-05 16:10 -22.83326 -46.62135 15035 ft 390 kts 259°
2026-05-05 16:10 -22.83999 -46.64972 15037 ft 389 kts 252°
2026-05-05 16:10 -22.84810 -46.67772 15027 ft 389 kts 252°
2026-05-05 16:11 -22.85646 -46.70584 15020 ft 389 kts 249°
2026-05-05 16:11 -22.90368 -46.77486 14961 ft 362 kts 214°
2026-05-05 16:12 -22.92458 -46.78764 14994 ft 330 kts 199°
2026-05-05 16:12 -22.96713 -46.79203 14339 ft 301 kts 168°
2026-05-05 16:13 -23.01569 -46.75312 12990 ft 301 kts 110°
2026-05-05 16:13 -23.02039 -46.73101 12659 ft 299 kts 105°
2026-05-05 16:13 -23.02922 -46.71121 12302 ft 297 kts 129°
2026-05-05 16:14 -23.05971 -46.68151 11678 ft 292 kts 141°
2026-05-05 16:14 -23.09139 -46.65361 11076 ft 288 kts 140°
2026-05-05 16:15 -23.12253 -46.62602 11027 ft 290 kts 140°
2026-05-05 16:15 -23.15408 -46.59802 10702 ft 298 kts 140°
2026-05-05 16:16 -23.18618 -46.57048 9778 ft 286 kts 151°
2026-05-05 16:16 -23.22502 -46.56670 8977 ft 287 kts 198°
2026-05-05 16:17 -23.25989 -46.58652 8022 ft 278 kts 212°
2026-05-05 16:17 -23.27595 -46.59771 7873 ft 268 kts 213°
2026-05-05 16:18 -23.30679 -46.61956 7638 ft 265 kts 213°
2026-05-05 16:18 -23.32223 -46.63053 7507 ft 265 kts 213°
2026-05-05 16:18 -23.35328 -46.65259 7233 ft 263 kts 213°
2026-05-05 16:19 -23.36858 -46.66346 7096 ft 263 kts 213°
2026-05-05 16:19 -23.38400 -46.67443 6957 ft 262 kts 213°
2026-05-05 16:19 -23.41466 -46.69603 6679 ft 261 kts 208°
2026-05-05 16:20 -23.44997 -46.69897 6317 ft 260 kts 169°
2026-05-05 16:20 -23.47884 -46.67870 5695 ft 250 kts 118°
2026-05-05 16:21 -23.48166 -46.64394 5117 ft 222 kts 74°
2026-05-05 16:22 -23.46941 -46.59995 4418 ft 186 kts 73°
2026-05-05 16:22 -23.46237 -46.57382 4015 ft 167 kts 73°
2026-05-05 16:23 -23.45647 -46.55201 3640 ft 141 kts 73°
2026-05-05 16:23 -23.45371 -46.54183 3462 ft 139 kts 73°
2026-05-05 16:23 -23.44828 -46.52181 3106 ft 137 kts 73°
2026-05-05 16:24 -23.44559 -46.51188 2928 ft 137 kts 73°
2026-05-05 16:24 -23.44289 -46.50194 2758 ft 136 kts 73°
2026-05-05 16:24 -23.43750 -46.48218 2480 ft 133 kts 73°
2026-05-05 16:25 -23.43524 -46.47374 2473 ft 90 kts 72°
2026-05-05 16:25 -23.43262 -46.46823 2462 ft 34 kts 43°
2026-05-05 16:25 -23.43085 -46.46720 2457 ft 26 kts 342°
2026-05-05 16:26 -23.42777 -46.46868 2451 ft 15 kts 267°
2026-05-05 16:26 -23.42823 -46.47111 2451 ft 15 kts 304°
2026-05-05 16:27 -23.42739 -46.47163 2450 ft 9 kts 300°
2026-05-05 16:27 -23.42738 -46.47235 2450 ft 10 kts 253°
2026-05-05 16:27 -23.42745 -46.47263 2450 ft 0 kts 256°